Regional Weather Roundup
Issued by NWS

Home | Current Version | Previous Version | Graphics & Text | Print | Product List | Glossary On
Versions: 1 2 3 4 5 6 7 8 9 10 11 12 13 14 15 16 17 18 19 20 21 22 23 24 25 26 27 28 29 30 31 32 33 34 35 36 37 38 39 40 41 42 43 44 45 46 47 48 49 50
000
ASUS43 KOAX 261410
RWRNE

WEATHER ROUNDUP FOR NEBRASKA
NATIONAL WEATHER SERVICE OMAHA NE
900 AM CDT FRI MAY 26 2017

NOTES: SATELLITE DATA IS BEING USED TO AUGMENT CLOUD COVER ABOVE
       12000 FEET.
       "FAIR" INDICATES FEW OR NO CLOUDS BELOW 12,000 FEET WITH NO
       SIGNIFICANT WEATHER AND/OR OBSTRUCTIONS TO VISIBILITY.

  * THESE STATIONS DO NOT REPORT WEATHER SUCH AS RAIN...SNOW OR FOG.

NEZ001>004-019>022-054>056-261500-
NEBRASKA PANHANDLE

CITY           SKY/WX    TMP DP  RH WIND       PRES   REMARKS
SCOTTSBLUFF    SUNNY     51  40  65 W7        29.96S
ALLIANCE       SUNNY     51  39  63 N7        29.94R
CHADRON        SUNNY     54  41  61 NW9       29.93S
GORDON         FAIR      53  40  60 NW6       29.93R
KIMBALL        SUNNY     50  38  63 NW5       29.98S
SIDNEY         SUNNY     50  40  68 NW7       29.97R
$$

NEZ057>060-069>072-079>082-261500-
SOUTHWEST NEBRASKA

CITY           SKY/WX    TMP DP  RH WIND       PRES   REMARKS
NORTH PLATTE   MOSUNNY   58  44  60 N15G24    29.91R
IMPERIAL       PTSUNNY   53  44  71 N13       29.93S
LEXINGTON      MOSUNNY   61  45  56 N22G28    29.88R
MCCOOK         PTSUNNY   57  45  64 N9        29.90R
OGALLALA       CLOUDY    55  43  64 N7        29.95R
$$

NEZ005>010-023>029-035>040-094-261500-
NORTH CENTRAL NEBRASKA

CITY           SKY/WX    TMP DP  RH WIND       PRES   REMARKS
VALENTINE      SUNNY     58  38  47 N15G23    29.91R
AINSWORTH      SUNNY     56  43  62 N15       29.91R
BROKEN BOW     MOSUNNY   59  43  55 N22G29    29.88R
O`NEILL        SUNNY     59  43  55 NW14      29.88R
ORD            MOSUNNY   60  43  53 N20G29    29.85R
THEDFORD       CLOUDY    56  42  59 N12G20    29.92S
$$

NEZ041-046>049-061>064-073>077-083>087-261500-
SOUTH CENTRAL NEBRASKA

CITY           SKY/WX    TMP DP  RH WIND       PRES   REMARKS
GRAND ISLAND   SUNNY     62  47  57 N17       29.84R
AURORA         MOSUNNY   63  46  53 N20G26    29.82R
HASTINGS       SUNNY     61  45  55 N18       29.86R
HEBRON         MOSUNNY   67  54  63 N16G22    29.78R
HOLDREGE       PTSUNNY   61  43  52 N18G26    29.86S
KEARNEY *      PTSUNNY   61  43  51 N18       29.86R
YORK           MOSUNNY   64  46  52 N17G24    29.81R
$$

NEZ011>018-030>034-042>045-261500-
NORTHEAST NEBRASKA

CITY           SKY/WX    TMP DP  RH WIND       PRES   REMARKS
NORFOLK        PTSUNNY   60  45  57 NW20G28   29.80R
ALBION         CLOUDY    60  46  58 N16G25    29.82R
BLAIR          MOSUNNY   66  58  76 NW9G16    29.75R
FREMONT        CLOUDY    64  51  64 NW9       29.77R
TEKAMAH        PTSUNNY   64  54  69 NW15      29.75R
WAYNE          CLOUDY    60  48  63 N17G24    29.80R
$$

NEZ050>053-065>068-078-088>093-261500-
SOUTHEAST NEBRASKA

CITY           SKY/WX    TMP DP  RH WIND       PRES   REMARKS
LINCOLN        CLOUDY    68  54  60 N17G25    29.77R
OMAHA EPPLEY   PTSUNNY   67  59  75 NW6       29.74R
BEATRICE       SUNNY     69  61  75 N13       29.75R
FALLS CITY     SUNNY     69  62  78 NW7       29.72R
NEBRASKA CITY  MOSUNNY   69  57  65 NW5       29.73R
PLATTSMOUTH    CLOUDY    68  60  75 NW9       29.74R
$$

NEZ044-045-051>053-067-261500-
OMAHA AREA

CITY           SKY/WX    TMP DP  RH WIND       PRES   REMARKS
OMAHA EPPLEY   PTSUNNY   67  59  75 NW6       29.74R
BLAIR          MOSUNNY   66  58  76 NW9G16    29.75R
FREMONT        CLOUDY    64  51  64 NW9       29.77R
MILLARD        CLOUDY    68  60  75 NW7       29.74R
OFFUTT AFB     PTSUNNY   68  59  74 W10       29.73R
PLATTSMOUTH    CLOUDY    68  60  75 NW9       29.74R
WAHOO          FAIR      65  50  58 NW18G25   29.76R
$$



USA.gov is the U.S. government's official web portal to all federal, state and local government web resources and services.